Voltar ao catálogo

STARLINK-36659

AtivoComunicaçõesVLEO
NORAD 67833·PAYLOAD·🇺🇸 United States

Lançado Feb 16, 2026 de Vandenberg Space Force Base

Loading…

Próximas Passagens (próximas 24 horas)

TLE

AtualizadoSource: CelesTrak SupGP

Época: Sep 14, 2026, 21:17 UTC

1 67833C 26033N   26257.88729167  .00012983  00000+0  47031-3 0  2578
2 67833  43.0015 278.3943 0001369 264.3619   7.3145 15.27568005    18

Acompanhe STARLINK-36659 em tempo real com AllMySat

Download on the App Store